Voltar ao catálogo

CHINASAT 22

AtivoComunicaçõesGEO
NORAD 26058·PAYLOAD·🇨🇳 China

Lançado Jan 25, 2000 de Xichang Satellite Launch Center

Loading…

TLE

AtualizadoSource: Space-Track

Época: Sep 14, 2026, 13:28 UTC

1 26058U 00003A   26257.56154476 -.00000079  00000-0  00000+0 0  9990
2 26058  12.6092  31.7197 0004149 277.5212 114.0028  0.97320877 46857

Acompanhe CHINASAT 22 em tempo real com AllMySat

Download on the App Store